Location: Huesca
(42.1318°N, 0.4078°W)
Time: 20:31:05
(UTC+02:00)

DIWATA 2B (PO-101) - Pass Details

Date: 03 May 2024
Orbit: 575 x 589 km, 98.1° (Epoch: 20 May)

Event Time Altitude Azimuth Distance (km) Brightness Sun altitude
Exits shadow 06:08:15 - 192° (SSW) 2,753 ? -8.5°
Reaches altitude 10° 06:10:31 10° 204° (SSW) 1,910 ? -8.1°
Maximum altitude 06:14:05 28° 264° (W) 1,124 ? -7.5°
Drops below altitude 10° 06:17:40 10° 323° (NW) 1,918 ? -7.0°
Sets 06:20:06 0° 336° (NNW) 2,821 ? -6.6°
